GW5533 Weather Reports


Display with metric or nautical units.
time (UTC)temp
F
wind
direction
speed
MPH
gust
MPH
rain 1hr
in
rain 24hr
in
rain mn
in
humidity
%
barometer
mb
20260506233536 58 73 3.0 7.0 0.00 0.90 0.00 84 1012.8
20260506233017 58 101 2.0 7.0 0.00 0.91 0.00 84 1012.8
20260506232514 58 78 2.0 7.0 0.00 0.91 0.00 84 1012.8
20260506232016 58 79 4.0 7.0 0.00 0.91 0.00 84 1012.8
20260506231516 58 73 2.0 5.0 0.00 0.91 0.00 84 1012.8
20260506231016 58 74 2.0 4.0 0.00 0.91 0.00 84 1012.7
20260506230537 58 74 2.0 6.0 0.00 0.91 0.00 84 1012.8
20260506230016 58 82 2.0 6.0 0.00 0.91 0.00 83 1012.7
20260506225536 58 83 2.0 6.0 0.00 0.91 0.00 83 1012.6
20260506225016 58 69 3.0 5.0 0.00 0.91 0.00 83 1012.6
20260506224516 58 81 2.0 5.0 0.00 0.91 0.00 84 1012.5
20260506224016 58 97 2.0 5.0 0.00 0.91 0.00 84 1012.5
20260506223516 58 111 0.0 3.0 0.00 0.91 0.00 83 1012.5
20260506223016 58 119 1.0 4.0 0.00 0.91 0.00 83 1012.7
20260506222516 58 122 2.0 4.0 0.00 0.91 0.00 83 1012.6
20260506222037 58 115 1.0 7.0 0.00 0.91 0.00 83 1012.6
20260506221516 58 88 1.0 7.0 0.00 0.91 0.00 83 1012.5
20260506221016 58 100 3.0 6.0 0.00 0.91 0.00 83 1012.6
20260506220517 58 104 1.0 6.0 0.00 0.91 0.00 82 1012.6
20260506220016 58 95 2.0 6.0 0.00 0.91 0.91 82 1012.6
20260506215515 58 106 3.0 7.0 0.00 0.91 0.91 82 1012.6
20260506215014 58 104 3.0 8.0 0.00 0.91 0.91 82 1012.6
20260506214517 58 106 3.0 8.0 0.00 0.91 0.91 82 1012.6
20260506214016 58 105 3.0 7.0 0.00 0.91 0.91 82 1012.6
20260506213517 58 88 3.0 7.0 0.00 0.91 0.91 81 1012.6
20260506213057 58 94 3.0 7.0 0.00 0.91 0.91 81 1012.6
20260506212537 58 91 3.0 8.0 0.00 0.91 0.91 81 1012.6
20260506212017 59 89 3.0 8.0 0.00 0.91 0.91 81 1012.6
20260506211517 59 102 2.0 6.0 0.00 0.91 0.91 80 1012.6
20260506211016 59 113 2.0 7.0 0.00 0.91 0.91 80 1012.6
20260506210516 59 108 2.0 7.0 0.00 0.91 0.91 80 1012.7
20260506210016 59 123 3.0 7.0 0.00 0.91 0.91 80 1012.6
20260506205517 59 114 2.0 7.0 0.00 0.91 0.91 80 1012.6
20260506205017 60 120 2.0 6.0 0.00 0.91 0.91 79 1012.6
20260506204517 60 102 2.0 7.0 0.00 0.91 0.91 79 1012.6
20260506204016 60 89 3.0 8.0 0.00 0.91 0.91 79 1012.5
20260506203516 60 98 3.0 8.0 0.00 0.91 0.91 79 1012.6
20260506203015 61 104 2.0 7.0 0.00 0.91 0.91 79 1012.5
20260506202516 61 101 2.0 7.0 0.00 0.91 0.91 79 1012.5
20260506202016 61 108 2.0 6.0 0.00 0.91 0.91 79 1012.5
20260506201517 61 107 2.0 6.0 0.00 0.91 0.91 79 1012.5
20260506201017 62 113 2.0 5.0 0.00 0.91 0.91 79 1012.4
20260506200537 62 114 2.0 5.0 0.00 0.91 0.91 79 1012.3
20260506200058 62 81 2.0 4.0 0.00 0.91 0.91 79 1012.3
20260506195519 62 76 2.0 5.0 0.00 0.91 0.91 79 1012.2
20260506195016 62 72 3.0 5.0 0.00 0.91 0.91 78 1012.2
20260506194517 62 64 2.0 5.0 0.00 0.91 0.91 78 1012.1
20260506194017 62 100 2.0 5.0 0.00 0.91 0.91 78 1012.1
20260506193516 62 110 1.0 5.0 0.00 0.91 0.91 78 1012.0
20260506193017 62 86 1.0 4.0 0.00 0.91 0.91 78 1011.9
20260506192516 63 127 2.0 4.0 0.00 0.91 0.91 78 1011.7
20260506192016 63 128 1.0 4.0 0.00 0.91 0.91 78 1011.7
20260506191518 63 95 1.0 3.0 0.00 0.91 0.91 77 1011.7
20260506191038 63 86 2.0 4.0 0.00 0.91 0.91 77 1011.6
20260506190517 63 120 2.0 4.0 0.00 0.91 0.91 77 1011.5
20260506190021 63 118 1.0 6.0 0.00 0.91 0.91 77 1011.5
20260506185516 63 125 1.0 8.0 0.00 0.91 0.91 77 1011.3
20260506185016 63 121 4.0 8.0 0.00 0.91 0.91 77 1011.2
20260506184537 63 114 4.0 9.0 0.00 0.91 0.91 76 1011.2
20260506184016 63 126 5.0 9.0 0.00 0.91 0.91 76 1011.1
20260506183556 63 134 3.0 6.0 0.00 0.91 0.91 76 1011.1
20260506183016 63 144 2.0 7.0 0.00 0.91 0.91 76 1011.1
20260506182516 63 136 3.0 8.0 0.00 0.91 0.91 76 1010.9
20260506182016 63 118 3.0 8.0 0.00 0.91 0.91 75 1010.7
20260506181516 63 113 2.0 8.0 0.00 0.91 0.91 75 1010.7
20260506181036 64 104 4.0 9.0 0.00 0.91 0.91 75 1010.7
20260506180537 64 124 3.0 9.0 0.00 0.91 0.91 74 1010.7
20260506180016 64 119 4.0 9.0 0.00 0.91 0.91 73 1010.7
20260506175516 64 141 3.0 8.0 0.00 0.91 0.91 73 1010.7
20260506175016 64 93 3.0 9.0 0.00 0.91 0.91 72 1010.6
20260506174516 65 138 3.0 11.0 0.00 0.91 0.91 72 1010.5
20260506174016 65 96 3.0 11.0 0.00 0.91 0.91 73 1010.6
20260506173516 65 105 2.0 5.0 0.00 0.91 0.91 73 1010.4
20260506173016 64 141 2.0 5.0 0.00 0.91 0.91 74 1010.4
20260506172516 64 91 2.0 7.0 0.00 0.91 0.91 74 1010.4
20260506172016 64 91 2.0 7.0 0.00 0.91 0.91 74 1010.5
20260506171516 64 45 2.0 8.0 0.00 0.91 0.91 75 1010.4
20260506171017 64 114 4.0 11.0 0.00 0.91 0.91 74 1010.4
20260506170516 64 120 5.0 11.0 0.00 0.91 0.91 74 1010.4
20260506170016 65 146 4.0 10.0 0.00 0.91 0.91 74 1010.4
20260506165516 65 152 6.0 10.0 0.00 0.91 0.91 73 1010.4
20260506165036 65 167 4.0 10.0 0.00 0.91 0.91 72 1010.4
20260506164516 66 150 4.0 10.0 0.00 0.91 0.91 72 1010.4
20260506164016 66 193 3.0 11.0 0.00 0.91 0.91 73 1010.4
20260506163517 66 68 3.0 11.0 0.00 0.91 0.91 72 1010.4
20260506163017 66 107 3.0 12.0 0.00 0.91 0.91 73 1010.5
20260506162516 66 144 4.0 13.0 0.00 0.91 0.91 74 1010.5
20260506162016 66 177 4.0 13.0 0.00 0.91 0.91 75 1010.6
20260506161536 66 107 5.0 13.0 0.00 0.91 0.91 75 1010.5
20260506161016 65 150 5.0 11.0 0.00 0.91 0.91 76 1010.5
20260506160516 65 147 5.0 13.0 0.00 0.91 0.91 75 1010.5
20260506160016 65 149 5.0 13.0 0.00 0.91 0.91 75 1010.4
20260506155516 65 182 6.0 12.0 0.00 0.91 0.91 75 1010.5
20260506155016 66 169 5.0 12.0 0.00 0.91 0.91 74 1010.5
20260506154516 66 153 3.0 10.0 0.00 0.91 0.91 75 1010.5
20260506154016 67 159 5.0 10.0 0.00 0.91 0.91 74 1010.5
20260506153516 67 153 4.0 9.0 0.00 0.91 0.91 75 1010.5
20260506153036 67 114 3.0 9.0 0.00 0.91 0.91 75 1010.4
20260506152516 67 108 2.0 9.0 0.00 0.91 0.91 75 1010.3
20260506152016 67 170 4.0 9.0 0.00 0.91 0.91 75 1010.3
20260506151516 67 148 3.0 9.0 0.00 0.91 0.91 74 1010.3
20260506151056 67 153 4.0 9.0 0.00 0.91 0.91 74 1010.2
20260506150516 67 147 3.0 8.0 0.00 0.91 0.91 75 1010.3
20260506150016 67 158 3.0 10.0 0.00 0.91 0.91 75 1010.2
20260506145516 67 131 3.0 10.0 0.00 0.91 0.91 75 1010.2
20260506145016 67 168 4.0 7.0 0.00 0.91 0.91 74 1010.3
20260506144516 67 216 3.0 11.0 0.00 0.91 0.91 74 1010.2
20260506144016 67 153 6.0 11.0 0.00 0.91 0.91 74 1010.2
20260506143516 67 283 4.0 11.0 0.00 0.91 0.91 73 1010.1
20260506143036 68 166 5.0 11.0 0.00 0.91 0.91 74 1010.1
20260506142536 68 243 4.0 13.0 0.00 0.91 0.91 74 1010.1
20260506142016 68 141 5.0 13.0 0.00 0.91 0.91 74 1010.1
20260506141516 68 155 4.0 9.0 0.00 0.91 0.91 75 1010.1
20260506141016 67 96 2.0 15.0 0.00 0.91 0.91 76 1010.1
20260506140516 67 282 7.0 15.0 0.00 0.91 0.91 75 1010.1
20260506140036 67 287 6.0 12.0 0.00 0.91 0.91 75 1010.1
20260506135516 67 257 6.0 13.0 0.00 0.91 0.91 74 1010.2
20260506135016 68 277 7.0 13.0 0.00 0.91 0.91 75 1010.2
20260506134516 68 316 2.0 8.0 0.00 0.91 0.91 76 1010.3
20260506134016 68 155 3.0 10.0 0.00 0.91 0.91 75 1010.3
20260506133516 68 104 8.0 10.0 0.00 0.91 0.91 76 1010.4
20260506131516 68 127 4.0 11.0 0.00 0.91 0.91 78 1010.4
20260506131035 67 69 3.0 9.0 0.00 0.91 0.91 77 1010.5
20260506130516 67 94 4.0 10.0 0.00 0.91 0.91 76 1010.4
20260506130036 68 112 2.0 14.0 0.00 0.91 0.91 76 1010.5
20260506125516 68 179 6.0 14.0 0.00 0.91 0.91 75 1010.5
20260506125036 68 128 4.0 10.0 0.00 0.91 0.91 76 1010.5
20260506124536 68 248 2.0 10.0 0.00 0.91 0.91 76 1010.5
20260506124016 68 131 4.0 11.0 0.00 0.91 0.91 75 1010.5
20260506123516 68 177 4.0 11.0 0.00 0.91 0.91 75 1010.4
20260506123036 68 182 3.0 11.0 0.00 0.91 0.91 74 1010.5
20260506122516 68 234 3.0 11.0 0.00 0.91 0.91 74 1010.6
20260506122016 68 24 3.0 10.0 0.00 0.91 0.91 73 1010.5
20260506121536 68 298 4.0 11.0 0.00 0.91 0.91 73 1010.5
20260506121016 68 57 3.0 11.0 0.00 0.91 0.91 72 1010.4
20260506120515 68 235 5.0 11.0 0.00 0.91 0.91 71 1010.4
20260506120015 68 156 4.0 11.0 0.00 0.91 0.91 72 1010.4
20260506115516 68 307 3.0 11.0 0.00 0.91 0.91 73 1010.4
20260506115015 68 156 3.0 9.0 0.00 0.91 0.91 75 1010.4
20260506114515 68 114 3.0 11.0 0.00 0.91 0.91 77 1010.3
20260506114016 68 182 4.0 11.0 0.00 0.91 0.91 78 1010.3
20260506113516 68 129 4.0 10.0 0.00 0.91 0.91 79 1010.3
20260506113056 67 124 2.0 10.0 0.00 0.91 0.91 80 1010.3
20260506112515 67 246 4.0 9.0 0.00 0.91 0.91 81 1010.3
20260506112015 66 143 3.0 9.0 0.00 0.91 0.91 82 1010.2
20260506111515 65 224 3.0 14.0 0.00 0.91 0.91 82 1010.2
20260506111015 65 275 9.0 15.0 0.00 0.91 0.91 82 1010.2
20260506110516 65 290 9.0 15.0 0.00 0.91 0.91 83 1010.2
20260506110016 65 46 5.0 12.0 0.00 0.91 0.91 83 1010.2
20260506105515 65 296 6.0 14.0 0.00 0.91 0.91 84 1010.2
20260506105036 65 278 8.0 17.0 0.00 0.91 0.91 85 1010.1
20260506104515 65 269 11.0 17.0 0.00 0.91 0.91 84 1010.2
20260506104055 64 275 12.0 17.0 0.00 0.91 0.91 84 1010.1
20260506103515 65 275 12.0 19.0 0.00 0.91 0.91 84 1010.1
20260506103015 65 281 12.0 19.0 0.00 0.91 0.91 85 1010.0
20260506102516 66 288 4.0 15.0 0.00 0.91 0.91 86 1009.9
20260506102016 66 76 5.0 13.0 0.00 0.91 0.91 86 1009.8
20260506101515 65 54 4.0 13.0 0.00 0.91 0.91 87 1009.8
20260506101015 65 97 6.0 19.0 0.00 0.91 0.91 87 1009.8
20260506100516 65 64 6.0 19.0 0.00 0.91 0.91 88 1009.7
20260506100015 65 339 5.0 12.0 0.00 0.91 0.91 88 1009.7
20260506095516 64 345 4.0 12.0 0.00 0.91 0.91 88 1009.7
20260506095035 64 220 4.0 13.0 0.00 0.91 0.91 88 1009.8
20260506094515 64 138 5.0 17.0 0.00 0.91 0.91 88 1009.7
20260506094036 64 172 7.0 17.0 0.00 0.91 0.91 88 1009.7
20260506093516 64 160 6.0 17.0 0.00 0.91 0.91 88 1009.7
20260506093015 64 19 4.0 10.0 0.00 0.91 0.91 88 1009.6
20260506092515 64 196 5.0 18.0 0.00 0.91 0.91 88 1009.6
20260506092015 64 83 5.0 18.0 0.00 0.91 0.91 88 1009.5
20260506091556 64 103 6.0 15.0 0.00 0.91 0.91 88 1009.4
20260506091015 64 83 6.0 15.0 0.00 0.91 0.91 88 1009.3
20260506090515 64 60 4.0 13.0 0.00 0.91 0.91 88 1009.3
20260506090015 64 59 4.0 14.0 0.00 0.91 0.91 88 1009.3
20260506085515 64 55 4.0 14.0 0.06 0.91 0.91 88 1009.3
20260506085015 64 41 4.0 10.0 0.06 0.91 0.91 88 1009.3
20260506084516 64 76 5.0 11.0 0.06 0.91 0.91 88 1009.2
20260506084015 64 234 5.0 14.0 0.06 0.91 0.91 88 1009.2
20260506083515 64 337 5.0 14.0 0.06 0.91 0.91 88 1009.2
20260506083015 64 351 6.0 14.0 0.06 0.91 0.91 88 1009.1
20260506082515 64 11 5.0 12.0 0.06 0.91 0.91 88 1009.0
20260506082015 64 345 4.0 19.0 0.06 0.91 0.91 87 1009.0
20260506081515 64 100 7.0 25.0 0.06 0.91 0.91 87 1009.0
20260506081015 64 127 12.0 25.0 0.06 0.91 0.91 87 1008.9
20260506080536 64 151 10.0 20.0 0.06 0.91 0.91 87 1008.9
20260506073515 64 131 11.0 20.0 0.00 0.86 0.85 87 1009.2
20260506073015 64 121 10.0 20.0 0.00 0.86 0.85 87 1009.2
20260506072515 64 138 8.0 20.0 0.00 0.86 0.85 88 1009.2
20260506072015 64 134 11.0 21.0 0.00 0.86 0.85 88 1009.2
20260506071515 64 144 10.0 21.0 0.00 0.86 0.85 88 1009.1
20260506071015 64 146 8.0 16.0 0.00 0.86 0.85 88 1009.1
20260506070535 64 142 7.0 15.0 0.00 0.86 0.85 88 1009.1
20260506062015 64 156 9.0 31.0 0.00 0.88 0.85 89 1009.1
20260506061515 64 181 12.0 31.0 0.00 0.89 0.85 89 1009.0
20260506061015 63 147 6.0 26.0 0.01 0.89 0.85 89 1008.8
20260506060515 63 174 12.0 26.0 0.01 0.90 0.85 89 1008.5
20260506051015 62 140 9.0 25.0 0.05 1.06 0.84 91 1008.9
20260506050515 62 154 6.0 16.0 0.05 1.07 0.84 91 1008.8
20260506045015 62 167 11.0 27.0 0.04 1.12 0.83 91 1008.9
20260506044535 62 157 12.0 25.0 0.03 1.13 0.83 91 1008.7
20260506044015 62 140 10.0 18.0 0.03 1.13 0.83 91 1008.7
20260506043515 62 169 6.0 15.0 0.02 1.14 0.81 91 1008.9
20260506043035 62 288 4.0 11.0 0.02 1.15 0.80 91 1008.8
20260506042515 62 227 4.0 9.0 0.01 1.16 0.80 91 1008.7
20260506042015 62 101 3.0 8.0 0.17 1.19 0.80 91 1008.6
20260506041515 61 120 4.0 8.0 0.34 1.23 0.80 91 1008.7
20260506041015 61 113 1.0 6.0 0.35 1.27 0.80 90 1008.8
20260506040515 61 93 0.0 3.0 0.35 1.28 0.80 90 1008.8
20260506040015 61 89 2.0 3.0 0.37 1.29 0.80 90 1009.0
20260506035515 61 91 0.0 3.0 0.37 1.30 0.80 90 1009.1
20260506035015 61 0.0 0.0 0.37 1.31 0.80 90 1009.2
20260506034515 61 0.0 2.0 0.38 1.33 0.80 90 1009.3
20260506034035 61 119 0.0 7.0 0.45 1.35 0.80 90 1009.3
20260506033515 62 105 3.0 10.0 0.46 1.38 0.80 90 1009.3
20260506033015 62 164 5.0 16.0 0.45 1.38 0.79 90 1009.3
20260506032515 63 128 9.0 24.0 0.45 1.38 0.79 90 1009.2
20260506032015 63 189 14.0 24.0 0.29 1.22 0.63 90 1009.4
20260506031515 62 182 11.0 26.0 0.14 1.05 0.46 91 1009.2
20260506031015 62 217 12.0 26.0 0.14 1.04 0.45 91 1009.2
20260506030515 62 186 9.0 25.0 0.14 1.04 0.45 91 1009.0
20260506030015 62 169 5.0 13.0 0.13 1.02 0.43 91 1009.0
20260506025515 61 288 5.0 13.0 0.14 1.02 0.43 91 1009.0
20260506025035 61 174 4.0 18.0 0.18 1.04 0.43 91 1008.9
20260506024514 60 106 8.0 18.0 0.17 1.03 0.42 91 1008.8
20260506024055 59 119 2.0 9.0 0.12 0.98 0.35 90 1008.7
20260506023515 59 88 3.0 9.0 0.12 0.98 0.34 90 1008.6
20260506023015 59 103 4.0 9.0 0.13 0.98 0.34 90 1008.7
20260506022515 59 114 3.0 7.0 0.13 0.99 0.34 90 1008.8
20260506022015 59 126 4.0 7.0 0.13 1.01 0.34 90 1009.0
20260506021535 60 117 3.0 7.0 0.10 0.99 0.31 90 1009.1
20260506021034 60 109 3.0 10.0 0.09 1.00 0.31 90 1009.2
20260506020534 60 81 4.0 10.0 0.09 1.02 0.31 90 1009.4
20260506020055 60 72 3.0 10.0 0.08 1.02 0.29 90 1009.6
20260506015514 60 80 5.0 10.0 0.07 1.02 0.28 90 1009.5
20260506015015 60 77 5.0 10.0 0.03 0.99 0.24 90 1009.5
20260506014554 60 77 3.0 8.0 0.03 1.00 0.24 90 1009.7
20260506014015 61 123 3.0 8.0 0.02 1.00 0.23 90 1010.0
20260506013514 60 77 2.0 4.0 0.01 1.00 0.22 90 1009.8
20260506013034 61 73 2.0 4.0 0.00 1.00 0.21 90 1009.9
20260506012514 61 100 2.0 4.0 0.00 1.00 0.21 89 1010.1
20260506012014 61 106 1.0 4.0 0.00 1.00 0.21 89 1010.0
20260506011535 61 69 1.0 4.0 0.00 1.01 0.21 89 1009.9
20260506011015 61 74 1.0 3.0 0.00 1.02 0.21 89 1010.1
20260506010515 61 85 1.0 4.0 0.01 1.02 0.21 89 1010.2
20260506010014 61 112 2.0 4.0 0.01 1.03 0.21 89 1010.3
20260506005514 61 98 1.0 6.0 0.02 1.04 0.21 89 1010.2
20260506005016 61 107 3.0 8.0 0.06 1.04 0.21 89 1010.3
20260506004536 61 109 4.0 8.0 0.09 1.04 0.21 89 1010.4
20260506004015 61 105 2.0 6.0 0.17 1.04 0.21 89 1010.6
20260506003516 61 84 2.0 7.0 0.20 1.04 0.21 89 1010.6
20260506003016 61 107 4.0 8.0 0.21 1.04 0.21 88 1010.7
20260506002516 61 108 3.0 9.0 0.21 1.04 0.21 88 1010.5
20260506002016 62 101 5.0 9.0 0.21 1.04 0.21 88 1010.7
20260506001517 62 119 4.0 10.0 0.21 1.04 0.21 88 1010.8
20260506001016 62 117 3.0 10.0 0.21 1.04 0.21 88 1010.8
20260506000517 61 99 3.0 9.0 0.20 1.03 0.20 87 1010.6
20260506000037 61 129 1.0 6.0 0.20 1.03 0.20 87 1010.7
20260505235516 61 117 2.0 9.0 0.20 1.02 0.20 87 1010.8
20260505235016 61 37 4.0 15.0 0.15 0.98 0.15 86 1010.9
20260505234517 62 109 6.0 15.0 0.13 0.95 0.13 85 1011.1
20260505234016 61 171 4.0 11.0 0.04 0.87 0.04 84 1011.0